Regional Weather Roundup
Issued by NWS

Home | Current Version | Previous Version | Text Only | Print | Product List | Glossary Off
Versions: 1 2 3 4 5 6 7 8 9 10 11 12 13 14 15 16 17 18 19 20 21 22 23 24 25 26 27 28 29 30 31 32 33 34 35 36 37 38 39 40 41 42 43 44 45 46 47 48 49 50

000
ASUS45 KCYS 281110
RWRWY

WYOMING REGIONAL WEATHER ROUNDUP
NATIONAL WEATHER SERVICE CHEYENNE WY
400 AM MST SAT FEB 28 2015

NOTE:  "FAIR" INDICATES FEW OR NO CLOUDS BELOW 12,000 FEET
WITH NO SIGNIFICANT WEATHER AND/OR OBSTRUCTIONS TO VISIBILITY.

WYZ001-281200-
YELLOWSTONE NATIONAL PARK

CITY           SKY/WX    TMP DP  RH WIND       PRES   REMARKS
LK YELLOWSTONE   N/A    -11 -16  78 CALM      29.77S
W YELLOWSTONE  NOT AVBL

$$
WYZ002>013-054>058-071-098>099-281200-
NORTHERN WYOMING

CITY           SKY/WX    TMP DP  RH WIND       PRES   REMARKS
JACKSON        CLOUDY     9   7  92 N10       29.78S WCI  -6
CODY           FAIR       7   3  85 NE8       29.94R WCI  -6
GREYBULL       FAIR      15   7  70 NW12      29.99R WCI   2
WORLAND        CLOUDY    18   9  68 N12       29.97R WCI   5
SHERIDAN       CLOUDY    14   5  67 W12       30.04S WCI   0
BUFFALO        FAIR       7   2  80 N7        29.96R WCI  -5
GILLETTE       MOCLDY     9   5  84 NW9       30.00R WCI  -4
HULETT         FAIR      12   5  73 NW6       30.00R WCI   3
NEWCASTLE      FAIR       9   3  78 NW5       29.98R WCI   0

$$
WYZ014>020-022>026-101>103-281200-
CENTRAL WYOMING

CITY           SKY/WX    TMP DP  RH WIND       PRES   REMARKS
BIG PINEY      LGT SNOW  16  12  84 CALM      29.76S FOG
PINEDALE       LGT SNOW  14  12  92 NW6       29.76S WCI   5
DUBOIS         LGT SNOW   5   3  92 NW5       29.79S WCI  -4
LANDER         CLOUDY    15  10  80 CALM      29.87S
RIVERTON       CLOUDY    14   9  80 N3        29.89S
CASPER         CLOUDY    14   8  77 NE8       29.92R WCI   3
DOUGLAS        CLOUDY    11   8  88 NW6       29.94R WCI   1

$$
WYZ021-027>030-104>119-281200-
SOUTHERN WYOMING

CITY           SKY/WX    TMP DP  RH WIND       PRES   REMARKS
EVANSTON       FAIR      16  14  92 E12       29.69S WCI   3
FORT BRIDGER   FAIR      17  16  96 NE6       29.74S WCI   8
ROCK SPRINGS   FAIR      10   6  84 NE17      29.77S WCI  -8
DIXON          CLOUDY    18   7  62 E9        29.79S WCI   6
RAWLINS        CLOUDY     7   2  80 CALM      29.79S
SARATOGA       FAIR       5   1  85 CALM      29.78S
LARAMIE        FAIR      -2  -7  79 S7        29.76R WCI -15
CHEYENNE       FAIR      -1  -6  79 NW6       29.83R WCI -13
TORRINGTON     FAIR       4   0  83 NE9       29.96R WCI -10
PINE BLUFFS    FAIR       0  -6  78 MISG      29.90S

$$


USA.gov is the U.S. government's official web portal to all federal, state and local government web resources and services.